Holland, MI

3:36 AM EDT on May 23, 2017 (GMT -0400)
Tulip City

Weather History for KBIV - January, 2013

Change the Weather History Date:

Sunday, January 6, 2013

  Actual Average Record
Temperature  
Mean Temperature 35 °F 27 °F  
Max Temperature 38 °F 32 °F 60 °F (2008)
Min Temperature 32 °F 21 °F -1 °F (2014)
Degree Days  
Heating Degree Days 30 38  
Month to date heating degree days 214 227  
Since 1 July heating degree days 2318 2495  
Cooling Degree Days 0 0  
Month to date cooling degree days 0 0  
Year to date cooling degree days 0 0  
Moisture  
Dew Point 30 °F    
Average Humidity 77    
Maximum Humidity 89    
Minimum Humidity 64    
Precipitation  
Precipitation 0.13 in 0.07 in 0.24 in (1969)
Month to date precipitation 0.30 0.44  
Year to date precipitation 0.30 0.44  
Sea Level Pressure  
Sea Level Pressure 30.01 in    
Wind  
Wind Speed 13 mph (WNW)    
Max Wind Speed 24 mph    
Max Gust Speed 30 mph    
Visibility 7 miles    
Events Fog , Rain , Snow    
T = Trace of Precipitation, MM = Missing Value Source: NWS Daily Summary

Daily Weather History Graph

Daily Weather History Graph

Search for Another Location

Airport or City:

Trip Planner

Search our weather history database for the weather conditions in past years. The results will help you decide how hot, cold, wet, or windy it might be!

Date:

Astronomy

Jan. 06, 2013 Rise Set
Actual Time 8:14 AM EST 5:26 PM EST
Civil Twilight 7:42 AM EST 5:58 PM EST
Nautical Twilight 7:07 AM EST 6:33 PM EST
Astronomical Twilight 6:33 AM EST 7:07 PM EST
Moon 2:25 AM EST (1/6) 12:55 PM EST (1/6)
Length of Visible Light 10h 15m
Length of Day
9h 11m
Waning Crescent, 33% of the Moon is Illuminated
Jan 6
Waning Crescent
Jan 11
New
Jan 18
First Quarter
Jan 26
Full
Feb 3
Last Quarter

Hourly Weather History & Observations

Time (EST) Temp. Windchill Dew Point Humidity Pressure Visibility Wind Dir Wind Speed Gust Speed Precip Events Conditions
12:53 AM 37.0 °F 27.0 °F 32.0 °F 82% 29.95 in 10.0 mi WSW 18.4 mph 25.3 mph 0.01 in   Overcast
1:25 AM 37.4 °F 27.5 °F 32.0 °F 81% 29.91 in 9.0 mi WSW 18.4 mph 24.2 mph 0.00 in Rain Light Rain
1:53 AM 37.0 °F 28.5 °F 32.0 °F 82% 29.92 in 10.0 mi WSW 13.8 mph 21.9 mph 0.01 in   Overcast
2:53 AM 37.9 °F 29.2 °F 32.0 °F 79% 29.92 in 10.0 mi WSW 15.0 mph - N/A   Overcast
3:16 AM 37.4 °F 29.3 °F 32.0 °F 81% 29.89 in 10.0 mi WSW 12.7 mph - N/A   Overcast
3:53 AM 37.9 °F 28.5 °F 32.0 °F 79% 29.91 in 10.0 mi WSW 17.3 mph - N/A   Overcast
4:09 AM 37.4 °F 28.5 °F 32.0 °F 81% 29.88 in 10.0 mi SW 15.0 mph 23.0 mph N/A   Overcast
4:53 AM 37.9 °F 29.6 °F 32.0 °F 79% 29.89 in 10.0 mi WSW 13.8 mph - N/A   Overcast
5:53 AM 37.9 °F 29.6 °F 30.9 °F 76% 29.88 in 10.0 mi WSW 13.8 mph - N/A   Overcast
6:16 AM 37.4 °F 28.5 °F 30.2 °F 75% 29.85 in 9.0 mi WSW 15.0 mph - 0.00 in Rain Light Rain
6:53 AM 37.0 °F 27.7 °F 32.0 °F 82% 29.88 in 7.0 mi WSW 16.1 mph 23.0 mph 0.00 in Rain Light Rain
7:18 AM 35.6 °F 26.2 °F 32.0 °F 87% 29.87 in 7.0 mi West 15.0 mph 23.0 mph 0.01 in Rain Light Rain
7:31 AM 35.6 °F 27.5 °F 32.0 °F 87% 29.87 in 3.0 mi West 11.5 mph - 0.03 in Snow Light Snow
7:53 AM 36.0 °F 28.0 °F 32.0 °F 86% 29.90 in 4.0 mi West 11.5 mph - 0.04 in Snow Light Snow
8:45 AM 35.6 °F 26.6 °F 32.0 °F 87% 29.89 in 2.0 mi West 13.8 mph 19.6 mph 0.02 in Snow Light Snow
8:53 AM 35.1 °F 26.9 °F 30.9 °F 85% 29.92 in 1.5 mi West 11.5 mph - 0.02 in Snow Light Snow
9:00 AM 35.6 °F 27.5 °F 30.2 °F 81% 29.90 in 1.2 mi West 11.5 mph - 0.00 in Snow Light Snow
9:18 AM 35.6 °F 28.0 °F 30.2 °F 81% 29.90 in 1.8 mi WNW 10.4 mph - 0.01 in Snow Light Snow
9:35 AM 35.6 °F 29.9 °F 30.2 °F 81% 29.91 in 1.2 mi WNW 6.9 mph 17.3 mph 0.01 in Snow Light Snow
9:42 AM 35.6 °F 29.9 °F 30.2 °F 81% 29.91 in 1.0 mi WNW 6.9 mph - 0.01 in Snow Light Snow
9:53 AM 34.0 °F 25.5 °F 30.9 °F 89% 29.95 in 1.8 mi WNW 11.5 mph 18.4 mph 0.01 in Snow Light Snow
10:02 AM 33.8 °F 26.4 °F 30.2 °F 87% 29.93 in 2.5 mi WNW 9.2 mph 19.6 mph 0.00 in Snow Light Snow
11:00 AM 33.8 °F 27.7 °F 26.6 °F 75% 29.96 in 5.0 mi WNW 6.9 mph 19.6 mph N/A   Haze
11:53 AM 34.0 °F 26.0 °F 26.1 °F 73% 30.00 in 8.0 mi NW 10.4 mph - N/A   Overcast
12:53 PM 35.1 °F 26.4 °F 27.0 °F 72% 29.99 in 10.0 mi NW 12.7 mph 17.3 mph N/A   Overcast
1:53 PM 36.0 °F 30.3 °F 28.9 °F 76% 30.00 in 10.0 mi NW 6.9 mph - 0.01 in   Overcast
2:09 PM 35.6 °F 28.0 °F 28.4 °F 75% 29.99 in 1.5 mi NW 10.4 mph - 0.00 in Snow Light Snow
2:12 PM 35.6 °F 27.5 °F 30.2 °F 81% 29.99 in 0.8 mi NW 11.5 mph - 0.00 in Snow Light Snow
2:16 PM 35.6 °F 28.0 °F 30.2 °F 81% 29.99 in 0.5 mi NW 10.4 mph - 0.00 in Snow Snow
2:19 PM 35.6 °F 28.0 °F 30.2 °F 81% 30.00 in 0.8 mi NW 10.4 mph - 0.00 in Snow Light Snow
2:29 PM 33.8 °F 26.4 °F 30.2 °F 87% 30.00 in 0.5 mi NW 9.2 mph - 0.00 in Fog , Snow Snow
2:34 PM 35.6 °F 29.9 °F 30.2 °F 81% 30.01 in 1.0 mi NNW 6.9 mph - 0.00 in Snow Light Snow
2:38 PM 35.6 °F 29.2 °F 30.2 °F 81% 30.01 in 2.0 mi NW 8.1 mph - 0.00 in Snow Light Snow
2:46 PM 35.6 °F 28.0 °F 30.2 °F 81% 30.01 in 9.0 mi NNW 10.4 mph - 0.00 in   Overcast
2:53 PM 36.0 °F 28.0 °F 30.9 °F 82% 30.04 in 10.0 mi NW 11.5 mph 18.4 mph 0.01 in   Overcast
3:07 PM 35.6 °F 26.6 °F 32.0 °F 87% 30.03 in 10.0 mi NNW 13.8 mph 19.6 mph 0.02 in   Overcast
3:53 PM 37.0 °F 29.8 °F 34.0 °F 89% 30.09 in 10.0 mi NW 10.4 mph 18.4 mph 0.02 in   Overcast
4:01 PM 35.6 °F 28.0 °F 33.8 °F 93% 30.07 in 10.0 mi NW 10.4 mph - N/A   Overcast
4:53 PM 36.0 °F 29.0 °F 28.9 °F 76% 30.14 in 10.0 mi NW 9.2 mph - N/A   Overcast
5:53 PM 35.1 °F 28.6 °F 28.0 °F 76% 30.17 in 10.0 mi NNW 8.1 mph - N/A   Overcast
6:14 PM 35.6 °F 29.2 °F 26.6 °F 70% 30.17 in 10.0 mi NNW 8.1 mph - N/A   Overcast
6:53 PM 35.1 °F 30.1 °F 26.1 °F 70% 30.21 in 10.0 mi NNW 5.8 mph - N/A   Overcast
7:53 PM 35.1 °F 32.2 °F 25.0 °F 67% 30.25 in 10.0 mi North 3.5 mph - N/A   Overcast
8:40 PM 33.8 °F 30.8 °F 24.8 °F 70% 30.24 in 10.0 mi NW 3.5 mph - N/A   Overcast
8:53 PM 34.0 °F 29.8 °F 25.0 °F 70% 30.28 in 10.0 mi NNW 4.6 mph - N/A   Overcast
9:53 PM 34.0 °F - 25.0 °F 70% 30.28 in 10.0 mi Calm Calm - N/A   Overcast
10:53 PM 33.1 °F - 26.1 °F 75% 30.29 in 10.0 mi Calm Calm - N/A   Overcast
11:53 PM 32.0 °F - 26.1 °F 79% 30.30 in 10.0 mi Calm Calm - N/A   Overcast